VTM8801 MMMY-MMQT

Flight info

Callsign VTM8801
Flight time N/A
Altitude 37000
Route URTOB1A URTOB UJ11 BEROS UJ31 SLP UJ45 QET
Aircraft B733/M-SDE2E3FHIRW/S

Departure

Time N/A
Airport Monterrey International Airport (MMMY)

Arrival

Time 2026-05-08 15:40
Airport Querétaro Intercontinental Airport (MMQT)
Time Latitude Longitude Altitude Speed Heading
2026-05-08 15:07 23.34511 -100.93001 37261 ft 432 kts 184°
2026-05-08 15:07 23.31486 -100.93001 37257 ft 432 kts 184°
2026-05-08 15:07 23.25411 -100.93004 37255 ft 432 kts 184°
2026-05-08 15:08 23.20365 -100.93003 37258 ft 432 kts 184°
2026-05-08 15:08 23.13308 -100.93003 37259 ft 432 kts 184°
2026-05-08 15:09 23.07245 -100.93008 37259 ft 432 kts 184°
2026-05-08 15:09 23.01171 -100.93014 37259 ft 431 kts 184°
2026-05-08 15:10 22.95133 -100.93017 37260 ft 430 kts 184°
2026-05-08 15:10 22.89114 -100.93019 37240 ft 428 kts 183°
2026-05-08 15:11 22.83143 -100.93021 37255 ft 427 kts 183°
2026-05-08 15:11 22.77138 -100.93024 37257 ft 428 kts 183°
2026-05-08 15:12 22.71145 -100.93028 37258 ft 428 kts 183°
2026-05-08 15:12 22.65137 -100.93032 37256 ft 428 kts 183°
2026-05-08 15:13 22.59135 -100.93032 37256 ft 428 kts 183°
2026-05-08 15:13 22.53140 -100.93035 37258 ft 429 kts 183°
2026-05-08 15:14 22.47145 -100.93040 37257 ft 428 kts 183°
2026-05-08 15:14 22.41131 -100.93041 37257 ft 429 kts 183°
2026-05-08 15:15 22.35121 -100.93041 37261 ft 428 kts 183°
2026-05-08 15:15 22.29141 -100.93044 37254 ft 428 kts 183°
2026-05-08 15:16 22.23205 -100.92159 37262 ft 435 kts 160°
2026-05-08 15:16 22.17622 -100.89465 37260 ft 438 kts 158°
2026-05-08 15:17 22.12028 -100.86853 37258 ft 437 kts 159°
2026-05-08 15:17 22.06354 -100.84273 37258 ft 438 kts 159°
2026-05-08 15:18 22.00719 -100.81717 37259 ft 438 kts 159°
2026-05-08 15:18 21.94998 -100.79122 37257 ft 438 kts 159°
2026-05-08 15:19 21.89322 -100.76550 37244 ft 439 kts 159°
2026-05-08 15:19 21.83663 -100.74006 37264 ft 438 kts 160°
2026-05-08 15:20 21.77985 -100.71446 37258 ft 438 kts 160°
2026-05-08 15:20 21.72306 -100.68883 37256 ft 437 kts 159°
2026-05-08 15:21 21.66667 -100.66337 37258 ft 437 kts 159°
2026-05-08 15:21 21.61029 -100.63794 36769 ft 438 kts 159°
2026-05-08 15:22 21.58182 -100.62511 35736 ft 447 kts 160°
2026-05-08 15:22 21.55262 -100.61197 34697 ft 456 kts 159°
2026-05-08 15:22 21.52316 -100.59869 33756 ft 460 kts 159°
2026-05-08 15:22 21.49356 -100.58536 32869 ft 463 kts 159°
2026-05-08 15:23 21.46387 -100.57200 31996 ft 466 kts 159°
2026-05-08 15:23 21.43373 -100.55844 31088 ft 468 kts 158°
2026-05-08 15:23 21.40374 -100.54495 30169 ft 468 kts 158°
2026-05-08 15:23 21.37356 -100.53139 29258 ft 468 kts 157°
2026-05-08 15:24 21.34314 -100.51775 28585 ft 463 kts 157°
2026-05-08 15:24 21.31394 -100.50469 28415 ft 444 kts 157°
2026-05-08 15:24 21.28611 -100.49224 28267 ft 423 kts 157°
2026-05-08 15:24 21.25916 -100.48017 28118 ft 403 kts 157°
2026-05-08 15:25 21.23372 -100.46877 27970 ft 385 kts 157°
2026-05-08 15:25 21.20954 -100.45795 27824 ft 369 kts 157°
2026-05-08 15:25 21.18634 -100.44756 27677 ft 353 kts 157°
2026-05-08 15:25 21.16388 -100.43751 27529 ft 341 kts 157°
2026-05-08 15:26 21.14192 -100.42768 27406 ft 340 kts 156°
2026-05-08 15:26 21.11960 -100.41770 26049 ft 372 kts 156°
2026-05-08 15:26 21.09451 -100.40644 24064 ft 413 kts 156°
2026-05-08 15:26 21.06747 -100.39433 22605 ft 431 kts 156°
2026-05-08 15:27 21.03965 -100.38190 21812 ft 430 kts 156°
2026-05-08 15:27 21.01240 -100.36977 21195 ft 425 kts 158°
2026-05-08 15:27 20.98372 -100.36254 20557 ft 419 kts 175°
2026-05-08 15:27 20.95460 -100.36045 19936 ft 414 kts 176°
2026-05-08 15:28 20.92614 -100.35840 19317 ft 410 kts 176°
2026-05-08 15:28 20.89757 -100.35604 18661 ft 406 kts 175°
2026-05-08 15:28 20.86945 -100.35362 17959 ft 404 kts 175°
2026-05-08 15:28 20.84164 -100.35116 17367 ft 400 kts 175°
2026-05-08 15:29 20.81407 -100.34867 16760 ft 395 kts 175°
2026-05-08 15:29 20.78629 -100.34607 16137 ft 392 kts 175°
2026-05-08 15:29 20.75929 -100.34358 15533 ft 388 kts 175°
2026-05-08 15:29 20.73242 -100.34210 14916 ft 385 kts 184°
2026-05-08 15:30 20.70650 -100.34836 14308 ft 380 kts 204°
2026-05-08 15:30 20.68426 -100.36328 13686 ft 375 kts 223°
2026-05-08 15:30 20.66721 -100.38406 13083 ft 371 kts 231°
2026-05-08 15:30 20.65088 -100.40515 12476 ft 369 kts 232°
2026-05-08 15:31 20.63654 -100.42795 11883 ft 365 kts 239°
2026-05-08 15:31 20.62312 -100.45096 11299 ft 362 kts 239°
2026-05-08 15:31 20.61323 -100.47522 10724 ft 356 kts 258°
2026-05-08 15:31 20.61166 -100.50142 10175 ft 350 kts 275°
2026-05-08 15:32 20.61374 -100.52704 10099 ft 330 kts 276°
2026-05-08 15:32 20.61575 -100.55069 10060 ft 307 kts 276°
2026-05-08 15:32 20.61763 -100.57297 9853 ft 296 kts 276°
2026-05-08 15:32 20.62124 -100.59439 9709 ft 287 kts 293°
2026-05-08 15:33 20.63229 -100.61163 9701 ft 287 kts 319°
2026-05-08 15:33 20.64974 -100.62209 9721 ft 290 kts 345°
2026-05-08 15:33 20.67011 -100.62314 9737 ft 292 kts 11°
2026-05-08 15:33 20.68848 -100.61417 9743 ft 294 kts 38°
2026-05-08 15:34 20.70390 -100.59993 9738 ft 295 kts 48°
2026-05-08 15:34 20.71305 -100.58029 9739 ft 297 kts 80°
2026-05-08 15:34 20.71117 -100.55833 9739 ft 299 kts 112°
2026-05-08 15:34 20.69907 -100.54029 9758 ft 300 kts 137°
2026-05-08 15:35 20.68542 -100.52351 9745 ft 300 kts 120°
2026-05-08 15:35 20.67614 -100.50353 9756 ft 297 kts 111°
2026-05-08 15:35 20.66982 -100.48308 9781 ft 282 kts 104°
2026-05-08 15:35 20.66544 -100.46286 9777 ft 275 kts 101°
2026-05-08 15:36 20.66034 -100.44297 9730 ft 275 kts 118°
2026-05-08 15:36 20.65300 -100.43173 9751 ft 275 kts 128°
2026-05-08 15:36 20.63694 -100.41011 9741 ft 276 kts 128°
2026-05-08 15:36 20.62599 -100.39331 9755 ft 269 kts 117°
2026-05-08 15:37 20.61869 -100.37537 9775 ft 253 kts 107°
2026-05-08 15:37 20.61467 -100.35762 9765 ft 238 kts 97°
2026-05-08 15:37 20.61421 -100.34038 9724 ft 223 kts 75°
2026-05-08 15:37 20.61918 -100.32524 9714 ft 207 kts 66°
2026-05-08 15:38 20.62467 -100.31105 9449 ft 207 kts 66°
2026-05-08 15:38 20.63023 -100.29627 8980 ft 215 kts 70°
2026-05-08 15:38 20.63349 -100.28040 8481 ft 218 kts 84°
2026-05-08 15:38 20.63266 -100.26430 7967 ft 221 kts 101°
2026-05-08 15:39 20.62899 -100.24815 7513 ft 219 kts 104°
2026-05-08 15:39 20.62547 -100.23253 7275 ft 208 kts 100°
2026-05-08 15:39 20.62314 -100.21765 7001 ft 199 kts 99°
2026-05-08 15:39 20.62061 -100.20274 6473 ft 202 kts 101°
2026-05-08 15:40 20.61782 -100.18815 6310 ft 188 kts 101°
2026-05-08 15:40 20.61581 -100.17655 6302 ft 125 kts 101°
2026-05-08 15:40 20.61453 -100.16965 6302 ft 38 kts 100°
2026-05-08 15:40 20.61471 -100.16925 6302 ft 4 kts 24°
2026-05-08 15:41 20.61499 -100.16911 6302 ft 3 kts 23°
2026-05-08 15:41 20.61506 -100.16909 6302 ft 1 kts 18°
2026-05-08 15:41 20.61520 -100.16904 6302 ft 2 kts 18°
2026-05-08 15:41 20.61542 -100.16896 6302 ft 4 kts 18°
2026-05-08 15:42 20.61566 -100.16898 6302 ft 5 kts 349°
2026-05-08 15:42 20.61602 -100.16936 6302 ft 10 kts 283°
2026-05-08 15:42 20.61612 -100.17015 6302 ft 8 kts 283°
2026-05-08 15:42 20.61612 -100.17018 6302 ft 8 kts 283°
2026-05-08 15:43 20.61626 -100.17075 6302 ft 10 kts 285°
2026-05-08 15:43 20.61648 -100.17178 6302 ft 15 kts 281°